Regional Weather Roundup
Issued by NWS

Home | Current Version | Previous Version | Text Only | Print | Product List | Glossary Off
Versions: 1 2 3 4 5 6 7 8 9 10 11 12 13 14 15 16 17 18 19 20 21 22 23 24 25 26 27 28 29 30 31 32 33 34 35 36 37 38 39 40 41 42 43 44 45 46 47 48 49 50

000
ASUS43 KMKX 270921
RWRWI

WISCONSIN REGIONAL WEATHER ROUNDUP
NATIONAL WEATHER SERVICE MILWAUKEE/SULLIVAN WI
400 AM CDT WED AUG 27 2014

NOTE: "FAIR" INDICATES FEW OR NO CLOUDS BELOW 12,000 FEET WITH NO
SIGNIFICANT WEATHER AND/OR OBSTRUCTIONS TO VISIBILITY.

WIZ001-002-006>008-014>016-023>028-271000-
NORTHWEST WISCONSIN

CITY           SKY/WX    TMP DP  RH WIND       PRES   REMARKS
SUPERIOR ARPT  CLOUDY    53  52  97 CALM      30.19S
ASHLAND        CLOUDY    55  52  89 W3        30.19S
HAYWARD        CLOUDY    56  55  97 CALM      30.20F
SIREN          LGT RAIN  56  55  95 CALM      30.21S
RICE LAKE      DRIZZLE   58  55  89 CALM      30.21S
LADYSMITH      CLOUDY    58  55  89 CALM      30.20S
EAU CLAIRE     CLOUDY    60  58  92 N3        30.18S
MENOMONIE      CLOUDY    60  57  92 CALM      30.19F
NEW RICHMOND   CLOUDY    59  58  96 CALM      30.20S
OSCEOLA        CLOUDY    59  58  98 N3        30.22S
$$

WIZ003>005-009-010-017-018-271000-
NORTH CENTRAL WISCONSIN

CITY           SKY/WX    TMP DP  RH WIND       PRES   REMARKS
WOODRUFF       DRIZZLE   57  55  94 CALM      30.18S
RHINELANDER    LGT RAIN  55  54  96 CALM      30.18F
EAGLE RIVER    LGT RAIN  53  53 100 CALM      30.17F
LAND O LAKES   LGT RAIN  53  52  99 CALM      30.19S
PHILLIPS       CLOUDY    55  54  97 CALM      30.17R
TOMAHAWK       LGT RAIN  54  52  94 CALM      30.18F
MEDFORD        LGT RAIN  56  55  96 CALM      30.18F
MERRILL        RAIN      57  56  97 CALM      30.18F
$$

WIZ029-030-035-036-043>047-271000-
CENTRAL WISCONSIN

CITY           SKY/WX    TMP DP  RH WIND       PRES   REMARKS
WAUSAU         LGT RAIN  59  56  89 NW3       30.17S
MOSINEE        CLOUDY    57  55  94 CALM      30.19S
MARSHFIELD     LGT RAIN  60  54  80 N5        30.18S
STEVENS POINT  CLOUDY    56  54  92 CALM      30.18S
WAUPACA        CLOUDY    61  56  85 CALM      30.17F
WAUTOMA        LGT RAIN  62  55  77 NE6       30.17S
WISC RAPIDS    CLOUDY    60  55  83 N5        30.18F
CAMP DOUGLAS   MOCLDY    56  56 100 NW5       30.17S
$$

WIZ011>013-019>022-031-037>040-048>050-271000-
NORTHEAST WISCONSIN

CITY           SKY/WX    TMP DP  RH WIND       PRES   REMARKS
ANTIGO         DRIZZLE   55  54  95 CALM      30.19S
STURGEON BAY   MOCLDY    57  52  82 NE3       30.17S
GREEN BAY      CLOUDY    60  55  83 N6        30.16S
MANITOWOC      CLOUDY    61  59  93 N8        30.15S
APPLETON       CLOUDY    59  52  77 N9        30.17S
CLINTONVILLE   CLOUDY    59  54  82 N3        30.16F
OSHKOSH        CLOUDY    63  57  81 VRB3      30.16R
$$

WIZ032>034-041-042-053>061-271000-
SOUTHWEST WISCONSIN

CITY           SKY/WX    TMP DP  RH WIND       PRES   REMARKS
LA CROSSE      PTCLDY    62  58  86 CALM      30.16F
SPARTA         PTCLDY    57  56  95 CALM      30.18S
VIROQUA        FAIR      58  58  97 N3        30.17F
BOSCOBEL       CLOUDY    63  60  90 CALM      30.16S
PRAIRIE DU CHI PTCLDY    61  57  88 CALM      30.15F
PLATTEVILLE    FAIR      63  60  91 N5        30.16F
$$

WIZ056-057-062-063-064-067-068-271000-
SOUTH CENTRAL WISCONSIN

CITY           SKY/WX    TMP DP  RH WIND       PRES   REMARKS
BARABOO/DELLS  CLOUDY    62  56  81 CALM      30.16F
LONE ROCK      CLOUDY    68  57  68 CALM      30.16S
WATERTOWN      LGT RAIN  62  59  90 CALM      30.14F
MADISON        CLOUDY    63  60  90 NW3       30.16S
MIDDLETON      CLOUDY    64  61  93 CALM      30.16F
MONROE         CLOUDY    63  61  94 NE5       30.15F
JANESVILLE     CLOUDY    66  55  68 CALM      30.13F
$$

WIZ051-052-058>065-066-070>072-271000-
SOUTHEAST WISCONSIN

CITY           SKY/WX    TMP DP  RH WIND       PRES   REMARKS
MILWAUKEE      CLOUDY    64  58  80 NW3       30.13S
WAUKESHA       CLOUDY    61  55  82 CALM      30.15S
MILWAUKEE/TIMM CLOUDY    63  55  77 CALM      30.14S
RACINE         CLOUDY    65  61  87 CALM      30.14F
BURLINGTON     CLOUDY    61  60  97 CALM      30.14S
KENOSHA        CLOUDY    64  60  87 N3        30.13F
FOND DU LAC    CLOUDY    62  56  80 N6        30.16R
SHEBOYGAN      CLOUDY    61  57  87 N6        30.14S
WEST BEND      CLOUDY    61  55  82 NW3       30.15R
JUNEAU         CLOUDY    61  57  88 CALM      30.16S
$$

LSZ147-162-271000-
LAKE SUPERIOR

STATION/POSITION TIME  TEMP    WIND        PRES    WAVE
                       AIR SEA DIR/SP/G            HT/PER
                 (UTC) (F)     (DEG/KT/KT) (MB)    (FT/S)
W MID LAKE BUOY  0850   56 55  280/  6/  6 1021.2S   1
DEVILS ISLAND    0900   58     320/  8/  8 1021.9F
PORT WING        0800   60     300/  3/  4 1022.4S
SAXON HARBOR     0800   57     160/  4/  6 1021.7F
$$

LMZ867-665-643>646-271000-
LAKE MICHIGAN

STATION/POSITION TIME  TEMP    WIND        PRES    WAVE
                       AIR SEA DIR/SP/G            HT/PER
                 (UTC) (F)     (DEG/KT/KT) (MB)    (FT/S)
N MID LAKE BUOY  0850   62 65  350/  8/ 10 1020.9R   1/ 4
NORTHPORT PIER   0800   63      20/  5/  8 1021.0R
SISTER BAY       0811   59        CALM       N/A
ALGOMA LAKESHORE 0823          350/  6/  8   N/A
KEWAUNEE LAKESHO 0900   62     350/  4/  8 1020.1R
SHEBOYGAN LAKESH 0900   64 66  340/ 10/ 11 1020.8R
ATWATER BUOY     0900   67     310/  6/  8 1021.4S
MILWAUKEE LAKESH 0900   67     340/  4/  5   N/A
S MID LAKE BUOY  0850   68 69  360/  2/  2 1019.8F   0
KENOSHA   LAKESH 0900   68     340/  5/  6 1020.0S
$$

TC  - TEMPERATURE IN CELSIUS
VSB - VISIBILITY IN STATUTE MILES
WCI - WIND CHILL INDEX
HX  - HEAT INDEX




USA.gov is the U.S. government's official web portal to all federal, state and local government web resources and services.